Погода в Ивановке

Россия / Астраханская область     47°17′49″N   47°01′36″E
темп.,
°C
ветер,
м/с
пор.,
м/с
влажн.,
%
обл.,
%
осадки,
мм/ч
давл.,
гПа
погр.,
м
8 мая, сб
сб801:00+16ю6104814 0.0 1017206
04:00+14ююз57580 0.0 1017135
07:00+15з226193 0.0 101780
10:00+20зюз014947 0.0 1017712
13:00+22юв22385 0.0 10161755
16:00+23вюв23365 0.0 10151901
19:00+22вюв3440100 0.0 1014477
22:00+19ю8124496 0.0 1015312
9 мая, вс
вс901:00+16ю5105099 0.0 1014255
04:00+15ююв49625 0.0 1013197
07:00+15ююв5116499 0.0 1013380
10:00+20ююв71041100 0.0 1012869
13:00+23ююв91138100 0.0 10101500
16:00+23ююв101248100 0.0 10091357
19:00+21ю7956100 0.0 1010970
22:00+19ююв61064100 0.0 1009381
10 мая, пн
пн1001:00+17ююз5769100 0.0 1009434
04:00+11зсз101288100 1.6 1009548
07:00+9зсз101388100 1.9 1011633
10:00+10з10117896 2.7 1013790
13:00+11з91070100 0.0 10151049
16:00+11зюз8968100 1.2 10161172
19:00+11з586496 0.0 10171136
22:00+9зюз47734 0.0 1019277
11 мая, вт
вт1101:00+8ююз35760 0.0 1020209
04:00+7юз338037 0.0 102099
07:00+8ююз12743 0.0 1022165
10:00+12ююз235567 0.0 1022712
13:00+15всв3243100 0.0 10221034
16:00+17св34375 0.0 10211050
19:00+17ссв34394 0.0 10211240
22:00+14св3451100 0.0 102191
12 мая, ср
ср1201:00+12ссв22615 0.0 102046
04:00+11с34715 0.0 102084
07:00+12с337163 0.0 1020168
10:00+16с22565 0.0 1020528
13:00+19в22476 0.0 1019897
16:00+22вюв24434 0.0 10181281
19:00+22вюв134588 0.0 1017633
22:00+19вюв45570 0.0 1016117